19/04/2024 03:30:00,3.384
19/04/2024 03:45:00,3.387
19/04/2024 04:00:00,3.394
19/04/2024 04:15:00,3.401
19/04/2024 04:30:00,3.407
19/04/2024 04:45:00,3.415
19/04/2024 05:00:00,3.423
19/04/2024 05:15:00,3.428
19/04/2024 05:30:00,3.438
19/04/2024 05:45:00,3.446
19/04/2024 06:00:00,3.452
19/04/2024 06:15:00,3.451
19/04/2024 06:30:00,3.447
19/04/2024 06:45:00,3.444
19/04/2024 07:00:00,3.435
19/04/2024 07:15:00,3.433
19/04/2024 07:30:00,3.428
19/04/2024 07:45:00,3.426
19/04/2024 08:00:00,3.419
19/04/2024 08:15:00,3.417
19/04/2024 08:30:00,3.41
19/04/2024 08:45:00,3.409
19/04/2024 09:00:00,3.399
19/04/2024 09:15:00,3.394
19/04/2024 09:30:00,3.386
19/04/2024 09:45:00,3.378
19/04/2024 10:00:00,3.362
19/04/2024 10:15:00,3.365
19/04/2024 10:30:00,3.35
19/04/2024 10:45:00,3.338
19/04/2024 11:00:00,3.331
19/04/2024 11:15:00,3.322
19/04/2024 11:30:00,3.317
19/04/2024 11:45:00,3.308
19/04/2024 12:00:00,3.294
19/04/2024 12:15:00,3.286
19/04/2024 12:30:00,3.28
19/04/2024 12:45:00,3.27
19/04/2024 13:00:00,3.259
19/04/2024 13:15:00,3.252
19/04/2024 13:30:00,3.24
19/04/2024 13:45:00,3.238
19/04/2024 14:00:00,3.225
19/04/2024 14:15:00,3.215
19/04/2024 14:30:00,3.204
19/04/2024 14:45:00,3.199
19/04/2024 15:00:00,3.186
19/04/2024 15:15:00,3.179
19/04/2024 15:30:00,3.167
19/04/2024 15:45:00,3.165
19/04/2024 16:00:00,3.15
19/04/2024 16:15:00,3.141
19/04/2024 16:30:00,3.128
19/04/2024 16:45:00,3.121
19/04/2024 17:00:00,3.115
19/04/2024 17:15:00,3.1
19/04/2024 17:30:00,3.088
19/04/2024 17:45:00,3.073
19/04/2024 18:00:00,3.063
19/04/2024 18:15:00,3.054
19/04/2024 18:30:00,3.041
19/04/2024 18:45:00,3.039
19/04/2024 19:00:00,3.036
19/04/2024 19:15:00,3.032
19/04/2024 19:30:00,3.03
19/04/2024 19:45:00,3.033
19/04/2024 20:00:00,3.034
19/04/2024 20:15:00,3.038
19/04/2024 20:30:00,3.038
19/04/2024 20:45:00,3.044
19/04/2024 21:00:00,3.049
19/04/2024 21:15:00,3.05
19/04/2024 21:30:00,3.054
19/04/2024 21:45:00,3.056
19/04/2024 22:00:00,3.059
19/04/2024 22:15:00,3.062
19/04/2024 22:30:00,3.064
19/04/2024 22:45:00,3.068
19/04/2024 23:00:00,3.071
19/04/2024 23:15:00,3.074
19/04/2024 23:30:00,3.076
19/04/2024 23:45:00,3.077
20/04/2024 00:00:00,3.079
20/04/2024 00:15:00,3.083
20/04/2024 00:30:00,3.085
20/04/2024 00:45:00,3.088
20/04/2024 01:00:00,3.09
20/04/2024 01:15:00,3.093
20/04/2024 01:30:00,3.094
20/04/2024 01:45:00,3.097
20/04/2024 02:00:00,3.1
20/04/2024 02:15:00,3.104
20/04/2024 02:30:00,3.105
20/04/2024 02:45:00,3.106
20/04/2024 03:00:00,3.109
20/04/2024 03:15:00,3.111
20/04/2024 03:30:00,3.114
20/04/2024 03:45:00,3.116
20/04/2024 04:00:00,3.118
20/04/2024 04:15:00,3.12
20/04/2024 04:30:00,3.122
20/04/2024 04:45:00,3.124
20/04/2024 05:00:00,3.127
20/04/2024 05:15:00,3.129
20/04/2024 05:30:00,3.131
20/04/2024 05:45:00,3.133
20/04/2024 06:00:00,3.135
20/04/2024 06:15:00,3.138
20/04/2024 06:30:00,3.141
20/04/2024 06:45:00,3.143
20/04/2024 07:00:00,3.144
20/04/2024 07:15:00,3.141
20/04/2024 07:30:00,3.134
20/04/2024 07:45:00,3.127
20/04/2024 08:00:00,3.117
20/04/2024 08:15:00,3.108
20/04/2024 08:30:00,3.099
20/04/2024 08:45:00,3.085
20/04/2024 09:00:00,3.077
20/04/2024 09:15:00,3.063
20/04/2024 09:30:00,3.054
20/04/2024 09:45:00,3.042
20/04/2024 10:00:00,3.034
20/04/2024 10:15:00,3.017
20/04/2024 10:30:00,2.999
20/04/2024 10:45:00,2.989
20/04/2024 11:00:00,2.976
20/04/2024 11:15:00,2.968
20/04/2024 11:30:00,2.964
20/04/2024 11:45:00,2.941
20/04/2024 12:00:00,2.937
20/04/2024 12:15:00,2.923
20/04/2024 12:30:00,2.913
20/04/2024 12:45:00,2.898
20/04/2024 13:00:00,2.893
20/04/2024 13:15:00,2.874
20/04/2024 13:30:00,2.867
20/04/2024 13:45:00,2.86
20/04/2024 14:00:00,2.84
20/04/2024 14:15:00,2.83
20/04/2024 14:30:00,2.814
20/04/2024 14:45:00,2.803
20/04/2024 15:00:00,2.796
20/04/2024 15:15:00,2.785
20/04/2024 15:30:00,2.782
20/04/2024 15:45:00,2.762
20/04/2024 16:00:00,2.753
20/04/2024 16:15:00,2.747
20/04/2024 16:30:00,2.734
20/04/2024 16:45:00,2.725
20/04/2024 17:00:00,2.709
20/04/2024 17:15:00,2.699
20/04/2024 17:30:00,2.696
20/04/2024 17:45:00,2.686
20/04/2024 18:00:00,2.675
20/04/2024 18:15:00,2.669
20/04/2024 18:30:00,2.659
20/04/2024 18:45:00,2.649
20/04/2024 19:00:00,2.643
20/04/2024 19:15:00,2.638
20/04/2024 19:30:00,2.634
20/04/2024 19:45:00,2.629
20/04/2024 20:00:00,2.626
20/04/2024 20:15:00,2.624
20/04/2024 20:30:00,2.622
20/04/2024 20:45:00,2.621
20/04/2024 21:00:00,2.623
20/04/2024 21:15:00,2.626
20/04/2024 21:30:00,2.626
20/04/2024 21:45:00,2.63
20/04/2024 22:00:00,2.633
20/04/2024 22:15:00,2.634
20/04/2024 22:30:00,2.635
20/04/2024 22:45:00,2.639
20/04/2024 23:00:00,2.641
20/04/2024 23:15:00,2.643
20/04/2024 23:30:00,2.645
20/04/2024 23:45:00,2.647
21/04/2024 00:00:00,2.649
21/04/2024 00:15:00,2.651
21/04/2024 00:30:00,2.652
21/04/2024 00:45:00,2.654
21/04/2024 01:00:00,2.656
21/04/2024 01:15:00,2.658
21/04/2024 01:30:00,2.659
21/04/2024 01:45:00,2.662
21/04/2024 02:00:00,2.664
21/04/2024 02:15:00,2.666
21/04/2024 02:30:00,2.668
21/04/2024 02:45:00,2.67
21/04/2024 03:00:00,2.672
21/04/2024 03:15:00,2.674
21/04/2024 03:30:00,2.675
21/04/2024 03:45:00,2.678
21/04/2024 04:00:00,2.68
21/04/2024 04:15:00,2.682
21/04/2024 04:30:00,2.683
21/04/2024 04:45:00,2.685
21/04/2024 05:00:00,2.688
21/04/2024 05:15:00,2.69
21/04/2024 05:30:00,2.692
21/04/2024 05:45:00,2.693
21/04/2024 06:00:00,2.697
21/04/2024 06:15:00,2.699
21/04/2024 06:30:00,2.7
21/04/2024 06:45:00,2.702
21/04/2024 07:00:00,2.704
21/04/2024 07:15:00,2.705
21/04/2024 07:30:00,2.708
21/04/2024 07:45:00,2.706
21/04/2024 08:00:00,2.701
21/04/2024 08:15:00,2.694
21/04/2024 08:30:00,2.687
21/04/2024 08:45:00,2.679
21/04/2024 09:00:00,2.672
21/04/2024 09:15:00,2.663
21/04/2024 09:30:00,2.654
21/04/2024 09:45:00,2.647
21/04/2024 10:00:00,2.639
21/04/2024 10:15:00,2.629
21/04/2024 10:30:00,2.62
21/04/2024 10:45:00,2.611
21/04/2024 11:00:00,2.597
21/04/2024 11:15:00,2.587
21/04/2024 11:30:00,2.581
21/04/2024 11:45:00,2.573
21/04/2024 12:00:00,2.564
21/04/2024 12:15:00,2.556
21/04/2024 12:30:00,2.55
21/04/2024 12:45:00,2.539
21/04/2024 13:00:00,2.532
21/04/2024 13:15:00,2.526
21/04/2024 13:30:00,2.521
21/04/2024 13:45:00,2.51
21/04/2024 14:00:00,2.502
21/04/2024 14:15:00,2.497
21/04/2024 14:30:00,2.485
21/04/2024 14:45:00,2.481
21/04/2024 15:00:00,2.473
21/04/2024 15:15:00,2.465
21/04/2024 15:30:00,2.452
21/04/2024 15:45:00,2.444
21/04/2024 16:00:00,2.441
21/04/2024 16:15:00,2.435
21/04/2024 16:30:00,2.424
21/04/2024 16:45:00,2.417
21/04/2024 17:00:00,2.413
21/04/2024 17:15:00,2.404
21/04/2024 17:30:00,2.401
21/04/2024 17:45:00,2.394
21/04/2024 18:00:00,2.387
21/04/2024 18:15:00,2.382
21/04/2024 18:30:00,2.379
21/04/2024 18:45:00,2.379
21/04/2024 19:00:00,2.374
21/04/2024 19:15:00,2.37
21/04/2024 19:30:00,2.366
21/04/2024 19:45:00,2.362
21/04/2024 20:00:00,2.359
21/04/2024 20:15:00,2.357
21/04/2024 20:30:00,2.355
21/04/2024 20:45:00,2.354
21/04/2024 21:00:00,2.353
21/04/2024 21:15:00,2.353
21/04/2024 21:30:00,2.354
21/04/2024 21:45:00,2.355
21/04/2024 22:00:00,2.357
21/04/2024 22:15:00,2.359
21/04/2024 22:30:00,2.362
21/04/2024 22:45:00,2.364
21/04/2024 23:00:00,2.366
21/04/2024 23:15:00,2.368
21/04/2024 23:30:00,2.37
21/04/2024 23:45:00,2.373
22/04/2024 00:00:00,2.375
22/04/2024 00:15:00,2.376
22/04/2024 00:30:00,2.379
22/04/2024 00:45:00,2.38
22/04/2024 01:00:00,2.383
22/04/2024 01:15:00,2.386
22/04/2024 01:30:00,2.387
22/04/2024 01:45:00,2.389
22/04/2024 02:00:00,2.391
22/04/2024 02:15:00,2.393
22/04/2024 02:30:00,2.394
22/04/2024 02:45:00,2.397
22/04/2024 03:00:00,2.398
22/04/2024 03:15:00,2.4
22/04/2024 03:30:00,2.398
22/04/2024 03:45:00,2.403
22/04/2024 04:00:00,2.406
22/04/2024 04:15:00,2.408
22/04/2024 04:30:00,2.407
22/04/2024 04:45:00,2.409
22/04/2024 05:00:00,2.407
22/04/2024 05:15:00,2.411
22/04/2024 05:30:00,2.414
22/04/2024 05:45:00,2.419
22/04/2024 06:00:00,2.419
22/04/2024 06:15:00,2.419
22/04/2024 06:30:00,2.421
22/04/2024 06:45:00,2.424
22/04/2024 07:00:00,2.422
22/04/2024 07:15:00,2.423
22/04/2024 07:30:00,2.417
22/04/2024 07:45:00,2.411
22/04/2024 08:00:00,2.404
22/04/2024 08:15:00,2.396
22/04/2024 08:30:00,2.39
22/04/2024 08:45:00,2.385
22/04/2024 09:00:00,2.376
22/04/2024 09:15:00,2.369
22/04/2024 09:30:00,2.358
22/04/2024 09:45:00,2.353
22/04/2024 10:00:00,2.338
22/04/2024 10:15:00,2.338
22/04/2024 10:30:00,2.316
22/04/2024 10:45:00,2.313
22/04/2024 11:00:00,2.302
22/04/2024 11:15:00,2.294
22/04/2024 11:30:00,2.288
22/04/2024 11:45:00,2.28
22/04/2024 12:00:00,2.273
22/04/2024 12:15:00,2.262
22/04/2024 12:30:00,2.249
22/04/2024 12:45:00,2.242
22/04/2024 13:00:00,2.234
22/04/2024 13:15:00,2.227
22/04/2024 13:30:00,2.23
22/04/2024 13:45:00,2.223
22/04/2024 14:00:00,2.206
22/04/2024 14:15:00,2.197
22/04/2024 14:30:00,2.2
22/04/2024 14:45:00,2.192
22/04/2024 15:00:00,2.185
22/04/2024 15:15:00,2.167
22/04/2024 15:30:00,2.167
22/04/2024 15:45:00,2.158
22/04/2024 16:00:00,2.147
22/04/2024 16:15:00,2.142
22/04/2024 16:30:00,2.141
22/04/2024 16:45:00,2.146
22/04/2024 17:00:00,2.126
22/04/2024 17:15:00,2.135
22/04/2024 17:30:00,2.12
22/04/2024 17:45:00,2.129
22/04/2024 18:00:00,2.123
22/04/2024 18:15:00,2.128
22/04/2024 18:30:00,2.126
22/04/2024 18:45:00,2.126
22/04/2024 19:00:00,2.126
22/04/2024 19:15:00,2.127
22/04/2024 19:30:00,2.124
22/04/2024 19:45:00,2.129
22/04/2024 20:00:00,2.129
22/04/2024 20:15:00,2.133
22/04/2024 20:30:00,2.137
22/04/2024 20:45:00,2.136
22/04/2024 21:00:00,2.14
22/04/2024 21:15:00,2.143
22/04/2024 21:30:00,2.142
22/04/2024 21:45:00,2.144
22/04/2024 22:00:00,2.147
22/04/2024 22:15:00,2.145
22/04/2024 22:30:00,2.148
22/04/2024 22:45:00,2.151
22/04/2024 23:00:00,2.153
22/04/2024 23:15:00,2.155
22/04/2024 23:30:00,2.156
22/04/2024 23:45:00,2.157
23/04/2024 00:00:00,2.159
23/04/2024 00:15:00,2.159
23/04/2024 00:30:00,2.162
23/04/2024 00:45:00,2.163
23/04/2024 01:00:00,2.166
23/04/2024 01:15:00,2.167
23/04/2024 01:30:00,2.168
23/04/2024 01:45:00,2.169
23/04/2024 02:00:00,2.172
23/04/2024 02:15:00,2.173
23/04/2024 02:30:00,2.175
23/04/2024 02:45:00,2.176
23/04/2024 03:00:00,2.179
23/04/2024 03:15:00,2.179
23/04/2024 03:30:00,2.18
23/04/2024 03:45:00,2.181
23/04/2024 04:00:00,2.182
23/04/2024 04:15:00,2.184
23/04/2024 04:30:00,2.185
23/04/2024 04:45:00,2.188
23/04/2024 05:00:00,2.189
23/04/2024 05:15:00,2.189
23/04/2024 05:30:00,2.191
23/04/2024 05:45:00,2.19
23/04/2024 06:00:00,2.191
23/04/2024 06:15:00,2.192
23/04/2024 06:30:00,2.193
23/04/2024 06:45:00,2.194
23/04/2024 07:00:00,2.189
23/04/2024 07:15:00,2.189
23/04/2024 07:30:00,2.173
23/04/2024 07:45:00,2.173
23/04/2024 08:00:00,2.163
23/04/2024 08:15:00,2.157
23/04/2024 08:30:00,2.152
23/04/2024 08:45:00,2.153
23/04/2024 09:00:00,2.141
23/04/2024 09:15:00,2.14
23/04/2024 09:30:00,2.134
23/04/2024 09:45:00,2.117
23/04/2024 10:00:00,2.109
23/04/2024 10:15:00,2.107
23/04/2024 10:30:00,2.101
23/04/2024 10:45:00,2.085
23/04/2024 11:00:00,2.083
23/04/2024 11:15:00,2.08
23/04/2024 11:30:00,2.068
23/04/2024 11:45:00,2.069
23/04/2024 12:00:00,2.056
23/04/2024 12:15:00,2.052
23/04/2024 12:30:00,2.063
23/04/2024 12:45:00,2.047
23/04/2024 13:00:00,2.042
23/04/2024 13:15:00,2.028
23/04/2024 13:30:00,2.034
23/04/2024 13:45:00,2.012
23/04/2024 14:00:00,2.009
23/04/2024 14:15:00,2.005
23/04/2024 14:30:00,1.998
23/04/2024 14:45:00,1.991
23/04/2024 15:00:00,1.991
23/04/2024 15:15:00,1.983
23/04/2024 15:30:00,1.973
23/04/2024 15:45:00,1.969
23/04/2024 16:00:00,1.966
23/04/2024 16:15:00,1.967
23/04/2024 16:30:00,1.956
23/04/2024 16:45:00,1.959
23/04/2024 17:00:00,1.959
23/04/2024 17:15:00,1.958
23/04/2024 17:30:00,1.948
23/04/2024 17:45:00,1.942
23/04/2024 18:00:00,1.947
23/04/2024 18:15:00,1.949
23/04/2024 18:30:00,1.948
23/04/2024 18:45:00,1.945
23/04/2024 19:00:00,1.946
23/04/2024 19:15:00,1.945
23/04/2024 19:30:00,1.947
23/04/2024 19:45:00,1.948
23/04/2024 20:00:00,1.949
23/04/2024 20:15:00,1.949
23/04/2024 20:30:00,1.949
23/04/2024 20:45:00,1.951
23/04/2024 21:00:00,1.954
23/04/2024 21:15:00,1.959
23/04/2024 21:30:00,1.955
23/04/2024 21:45:00,1.955
23/04/2024 22:00:00,1.955
23/04/2024 22:15:00,1.96
23/04/2024 22:30:00,1.963
23/04/2024 22:45:00,1.965
23/04/2024 23:00:00,1.964
23/04/2024 23:15:00,1.963
23/04/2024 23:30:00,1.967
23/04/2024 23:45:00,1.967
24/04/2024 00:00:00,1.965
24/04/2024 00:15:00,1.97
24/04/2024 00:30:00,1.975
24/04/2024 00:45:00,1.975
24/04/2024 01:00:00,1.974
24/04/2024 01:15:00,1.975
24/04/2024 01:30:00,1.977
24/04/2024 01:45:00,1.977
24/04/2024 02:00:00,1.978
24/04/2024 02:15:00,1.977
24/04/2024 02:30:00,1.977
24/04/2024 02:45:00,1.98
24/04/2024 03:00:00,1.979
